DW9665 Sarajevo BA current weather conditions

sailwx.info

Wind from 180

Air temperature 18.9° C
Dewpoint 11.4° C

Last reported at 2015-Aug-01 08:47 UTC.
Time now 2015-Aug-01 09:49 UTC

Location: N 43°50' E 018°21'.
View on Google Maps.

See reports from other nearby stations

  
Tides and Currents Weather Stations Pressure Air Temp Water Temp Dewpoint Dewpoint Depression Visibility Wind Speed Wind Dir Waves Ship Positions
date/time (UTC)wind fromknots sea level pressurealtimeterstation pressurevisibilityair tempwater tempwave heightnotes
2015-Aug-01 08:47 180 18.9
2015-Aug-01 08:32 135 18.3
2015-Aug-01 08:17 338 1 gusting 5 17.8
2015-Aug-01 08:02 292 1 gusting 6 17.2
2015-Aug-01 07:47 270 2 gusting 5 17.2
2015-Aug-01 07:32 270 0 gusting 4 17.2
2015-Aug-01 07:17 270 0 gusting 4 16.7
2015-Aug-01 07:02 270 0 gusting 4 16.7
2015-Aug-01 06:47 292 0 gusting 2 16.7
2015-Aug-01 06:32 112 16.1
2015-Aug-01 06:17 270 1 gusting 2 16.1
2015-Aug-01 06:02 135 15.6
2015-Aug-01 05:47 180 2 gusting 5 15.6
2015-Aug-01 05:32 270 3 gusting 4 15.6
2015-Aug-01 05:17 180 0 gusting 0 16.1
2015-Aug-01 05:02 180 15.6
2015-Aug-01 04:47 090 15.6
2015-Aug-01 04:32 180 0 gusting 3 15.6
2015-Aug-01 04:17 180 15.6
2015-Aug-01 04:02 180 15.6
2015-Aug-01 03:47 158 15.6
2015-Aug-01 03:32 270 0 gusting 2 15.6
2015-Aug-01 03:17 270 15.6
2015-Aug-01 03:02 180 15.6
2015-Aug-01 02:47 022 15.6
2015-Aug-01 02:32 180 15.6
2015-Aug-01 02:17 180 15.6
2015-Aug-01 02:02 270 0 gusting 1 15.6
2015-Aug-01 01:47 180 15.6
2015-Aug-01 01:32 180 15.6
2015-Aug-01 01:17 180 1 gusting 3 15.6
2015-Aug-01 01:02 292 15.6
2015-Aug-01 00:47 022 15.6
2015-Aug-01 00:32 180 15.6
2015-Aug-01 00:17 270 15.6
2015-Aug-01 00:02 158 15.6
2015-Jul-31 23:47 180 15.6
2015-Jul-31 23:32 158 15.6
2015-Jul-31 23:17 292 1 gusting 3 15.6
2015-Jul-31 23:02 068 15.6
2015-Jul-31 22:47 180 0 gusting 2 15.6
2015-Jul-31 22:32 180 15.6
2015-Jul-31 22:17 15.6
2015-Jul-31 22:02 15.6
2015-Jul-31 21:47 158 15.6
2015-Jul-31 21:32 338 15.6
2015-Jul-31 21:17 292 0 gusting 2 15.6
2015-Jul-31 21:02 135 15.6
2015-Jul-31 20:47 180 0 gusting 5 15.6
2015-Jul-31 20:32 270 3 gusting 5 15.6
2015-Jul-31 20:17 292 1 gusting 5 15.6
2015-Jul-31 20:02 270 3 gusting 5 15.6
2015-Jul-31 19:47 292 3 gusting 6 15.6
2015-Jul-31 19:32 292 1 gusting 6 15.6
2015-Jul-31 19:17 270 2 gusting 6 15.6
2015-Jul-31 19:02 270 2 gusting 5 15.6
2015-Jul-31 18:47 292 3 gusting 9 15.6
2015-Jul-31 18:32 270 1 gusting 6 15.6
2015-Jul-31 18:17 292 3 gusting 6 15.6
2015-Jul-31 18:02 180 2 gusting 8 15.6
2015-Jul-31 17:47 315 5 gusting 8 16.1
2015-Jul-31 17:32 270 3 gusting 6 16.1
2015-Jul-31 17:17 292 5 gusting 8 16.1
2015-Jul-31 17:02 270 2 gusting 5 16.1
2015-Jul-31 16:47 270 0 gusting 5 16.1
2015-Jul-31 16:32 270 2 gusting 10 15.6
2015-Jul-31 16:17 270 4 gusting 9 15.6
2015-Jul-31 16:02 338 5 gusting 8 16.1
2015-Jul-31 15:47 292 5 gusting 7 16.1
2015-Jul-31 15:32 292 5 gusting 9 16.7
2015-Jul-31 15:17 270 5 gusting 10 16.7
2015-Jul-31 15:02 270 2 gusting 11 16.7
2015-Jul-31 14:47 270 1 gusting 8 16.7
2015-Jul-31 14:32 292 4 gusting 11 16.7
2015-Jul-31 14:17 270 5 gusting 11 16.7
2015-Jul-31 14:02 292 7 gusting 11 17.2
2015-Jul-31 13:47 292 5 gusting 13 17.2
2015-Jul-31 13:32 135 6 gusting 13 17.8
2015-Jul-31 13:17 338 5 gusting 9 18.3
2015-Jul-31 13:02 292 3 gusting 13 18.9
2015-Jul-31 12:47 270 3 gusting 9 19.4
2015-Jul-31 12:32 338 6 gusting 7 19.4
2015-Jul-31 12:17 270 1 gusting 12 18.9
2015-Jul-31 12:02 292 3 gusting 12 18.3
2015-Jul-31 11:47 292 3 gusting 9 19.4
2015-Jul-31 11:32 338 3 gusting 5 19.4
2015-Jul-31 11:17 338 2 gusting 5 18.9
2015-Jul-31 11:02 18.3
2015-Jul-31 10:47 135 3 gusting 6 16.7
2015-Jul-31 10:32 158 5 gusting 6 15.6
2015-Jul-31 10:17 180 0 gusting 6 15.6
2015-Jul-31 10:02 270 15.6
2015-Jul-31 09:47 270 19 gusting 22 16.1
2015-Jul-31 09:32 338 1 gusting 13 17.2
2015-Jul-31 09:17 180 4 gusting 13 17.8
2015-Jul-31 09:02 270 7 gusting 9 18.3
2015-Jul-31 08:47 180 1 gusting 7 18.9
2015-Jul-31 08:32 292 0 gusting 4 18.9
2015-Jul-31 08:17 270 18.9
2015-Jul-31 08:02 18.3
2015-Jul-31 07:47 180 1 gusting 1 18.3
2015-Jul-31 07:32 180 1 gusting 3 18.3
2015-Jul-31 07:17 270 0 gusting 2 18.3
2015-Jul-31 07:02 270 1 gusting 6 18.3
2015-Jul-31 06:47 270 5 gusting 10 18.3
2015-Jul-31 06:32 292 7 gusting 31 18.9
2015-Jul-31 06:17 270 18 gusting 8 20.0
2015-Jul-31 06:02 270 3 gusting 4 20.0
2015-Jul-31 05:47 270 0 gusting 2 20.0
2015-Jul-31 05:32 292 1 gusting 4 20.0
2015-Jul-31 05:17 292 1 gusting 3 19.4
2015-Jul-31 05:02 338 20.0
2015-Jul-31 04:47 270 20.0
2015-Jul-31 04:32 270 0 gusting 2 19.4
2015-Jul-31 04:17 180 0 gusting 2 19.4
2015-Jul-31 04:02 292 1 gusting 3 19.4
2015-Jul-31 03:47 270 3 gusting 4 19.4
2015-Jul-31 03:32 270 3 gusting 5 19.4
2015-Jul-31 03:17 270 2 gusting 5 20.0
2015-Jul-31 03:02 270 1 gusting 4 20.0
2015-Jul-31 02:47 270 2 gusting 5 20.0
2015-Jul-31 02:32 022 20.0
2015-Jul-31 02:17 292 1 gusting 5 20.0
2015-Jul-31 02:02 270 1 gusting 3 20.0
2015-Jul-31 01:47 270 2 gusting 3 20.0
2015-Jul-31 01:32 270 2 gusting 2 20.0
2015-Jul-31 01:17 270 0 gusting 3 20.0
2015-Jul-31 01:02 180 20.0
2015-Jul-31 00:47 270 1 gusting 1 20.6
2015-Jul-31 00:32 270 0 gusting 4 20.6
2015-Jul-31 00:17 292 0 gusting 4 20.6
2015-Jul-31 00:02 135 20.6
2015-Jul-30 23:47 112 0 gusting 2 20.6
2015-Jul-30 23:32 180 20.6
2015-Jul-30 23:17 180 0 gusting 3 20.0
2015-Jul-30 23:02 270 20.0
2015-Jul-30 22:47 270 20.0
2015-Jul-30 22:32 292 2 gusting 4 20.6
2015-Jul-30 22:17 112 20.6
2015-Jul-30 22:02 180 20.6
2015-Jul-30 21:47 270 20.6
2015-Jul-30 21:32 158 20.6
2015-Jul-30 21:17 270 3 gusting 6 20.6
2015-Jul-30 21:02 270 3 gusting 6 20.6
2015-Jul-30 20:47 292 3 gusting 8 21.1
2015-Jul-30 20:32 21.1
2015-Jul-30 20:17 270 6 gusting 7 21.1
2015-Jul-30 19:47 270 3 gusting 8 21.7
2015-Jul-30 19:32 315 5 gusting 6 21.7
2015-Jul-30 19:17 158 0 gusting 9 22.2
2015-Jul-30 19:02 270 3 gusting 9 22.2
2015-Jul-30 18:47 292 5 gusting 9 22.8
2015-Jul-30 18:32 292 3 gusting 11 22.8
2015-Jul-30 18:17 270 6 gusting 13 23.3
2015-Jul-30 18:02 270 6 gusting 8 23.3
2015-Jul-30 17:47 022 3 gusting 8 23.9
2015-Jul-30 17:32 270 2 gusting 9 23.9
2015-Jul-30 17:17 270 6 gusting 8 24.4
2015-Jul-30 17:02 292 3 gusting 10 24.4
2015-Jul-30 16:47 292 3 gusting 7 25.0
2015-Jul-30 16:32 292 3 gusting 12 25.0
2015-Jul-30 16:17 292 5 gusting 6 25.0
2015-Jul-30 16:02 25.0
2015-Jul-30 15:47 270 5 gusting 11 25.0
2015-Jul-30 15:32 292 6 gusting 9 25.0
2015-Jul-30 15:17 270 6 gusting 11 25.6
2015-Jul-30 15:02 270 3 gusting 9 25.6
2015-Jul-30 14:47 270 5 gusting 13 26.1
2015-Jul-30 14:32 292 6 gusting 9 26.7
2015-Jul-30 14:17 292 6 gusting 11 26.7
2015-Jul-30 13:47 270 8 gusting 13 27.2
2015-Jul-30 13:32 270 6 gusting 8 28.3
2015-Jul-30 13:17 338 5 gusting 11 27.2
2015-Jul-30 13:02 338 5 gusting 13 27.2
2015-Jul-30 12:47 270 8 gusting 11 27.2
2015-Jul-30 12:32 292 9 gusting 13 27.2
2015-Jul-30 12:17 112 9 gusting 13 28.3
2015-Jul-30 12:02 270 6 gusting 8 30.0
2015-Jul-30 11:47 270 3 gusting 8 30.0
2015-Jul-30 11:32 292 2 gusting 5 30.6
2015-Jul-30 11:17 270 2 gusting 4 30.6
2015-Jul-30 11:02 270 0 gusting 6 30.0
2015-Jul-30 10:47 29.4
2015-Jul-30 10:32 135 2 gusting 7 29.4
2015-Jul-30 10:17 270 1 gusting 4 29.4
2015-Jul-30 10:02 180 2 gusting 5 28.3
2015-Jul-30 09:47 270 2 gusting 2 28.9
2015-Jul-30 09:32 158 0 gusting 5 28.3
2015-Jul-30 09:17 338 2 gusting 5 27.2
2015-Jul-30 09:02 270 26.7